Погода в Кубачах

Россия / Республика Дагестан     42°05′10″N   47°36′14″E
темп.,
°C
ветер,
м/с
пор.,
м/с
влажн.,
%
обл.,
%
осадки,
мм/ч
давл.,
гПа
погр.,
м
22 мая, вс
вс2200:00+1юз43610 0.0 101932
03:00+2юз44670 0.0 101637
06:00+6ююз33660 0.0 101374
09:00+13вюв12420 0.0 1010891
12:00+17всв24400 0.0 10071412
15:00+17с05350 0.0 10051479
18:00+13ю11560 0.0 100513
21:00+7ююз55490 0.0 100753
23 мая, пн
пн2300:00+7ююз55500 0.0 100652
03:00+7ююз55580 0.0 100654
06:00+9ююз44650 0.0 100479
09:00+17юз49363 0.0 10012499
12:00+16с1643100 0.0 10011922
15:00+9всв4593100 0.6 1003545
18:00+6всв3498100 0.6 1003396
21:00+4ссв1194100 1.5 1004187
24 мая, вт
вт2400:00+4с1287100 0.1 1003272
03:00+3зсз2297100 2.1 1005381
06:00+3зсз2298100 3.0 1006245
09:00+3сз2297100 4.6 1007394
12:00+5с2294100 1.2 1007563
15:00+4с2296100 2.4 1008623
18:00+4ссв1298100 1.8 1010438
21:00+3ссз1197100 2.2 1012525
25 мая, ср
ср2500:00+3зюз1196100 0.0 1012149
03:00+3ссв23100100 1.2 1013302
06:00+1вюв1199100 6.0 1016160
09:00+3всв2299100 9.6 1016203
12:00+3всв2299100 1.6 1017396
15:00+2ссв22100100 2.9 1019321
18:00+2с1199100 0.5 1021188
21:00+2з2291100 0.5 102332
26 мая, чт
чт2600:00−1юз33845 0.0 102521
03:00−1ююз33815 0.0 102522
06:00+2ююз22783 0.0 102473
09:00+7в327114 0.0 1022871
12:00+10в336010 0.0 10201199
15:00+11всв22586 0.1 10191058
18:00+8всв228477 0.0 1020241
21:00+3юз3375100 0.0 102223